Date String (YYYY-MM-DD hh:mm:ss) UTC,Instrument flags,absolute air pressure of the measurement (hPa),sample flow rate (lpm),inlet stack bypass flow (lpm),air temperature of the measurement (°C),ambient temperature measured by the external sensor (°C),aerosol sample conditioner tube jacket temperature (°C),OPC LED temperature (°C),internal box temperature (°C),relative humidity of the measurement (%),span deviation,mass concentration of particles derived from Lorenz-Mie calculation of OPC scattering (μg/m³),mass concentration of particles derived from Lorenz-Mie calculation of OPC scattering (μg/m³),mass concentration of particles derived from Lorenz-Mie calculation of OPC scattering (μg/m³)
DateTimeUTC,F1_M11,P_M11,Q1_M11,Q2_M11,T1_M11,T2_M11,T3_M11,T4_M11,T5_M11,U1_M11,ZSPAN_M11,X0_M11,X2_M11,X1_M11
2023-08-24 14:00:00,SystemResetWarning,0834.1,5.00,000.00,028.1,024.3,000.0,036.3,029.4,32.0,0001.2,0011.52,0007.16,0006.43
2023-08-24 14:01:00,SystemResetWarning,0834.2,5.00,000.00,028.0,024.4,000.0,036.3,029.4,32.5,0001.2,0011.77,0007.15,0006.41
2023-08-24 14:02:00,SystemResetWarning,0834.1,5.01,000.00,028.0,024.7,000.0,036.4,029.4,33.1,0001.1,0012.95,0007.16,0006.42
2023-08-24 14:03:00,SystemResetWarning,0834.1,5.01,000.00,028.0,025.1,000.0,036.4,029.4,32.8,0001.1,0013.85,0007.15,0006.41
2023-08-24 14:04:00,SystemResetWarning,0834.1,5.00,000.00,028.0,025.5,000.0,036.4,029.5,33.4,0001.5,0013.97,0007.17,0006.39
2023-08-24 14:05:00,SystemResetWarning,0834.1,5.00,000.00,028.0,025.8,000.0,036.4,029.6,33.2,0001.7,0013.94,0007.15,0006.37
2023-08-24 14:06:00,SystemResetWarning,0834.2,5.00,000.00,028.0,026.1,000.0,036.5,029.7,33.6,0001.1,0013.83,0007.19,0006.38
2023-08-24 14:07:00,SystemResetWarning,0834.2,5.00,000.00,028.1,026.4,000.0,036.5,029.8,33.7,0001.0,0013.80,0007.20,0006.40
2023-08-24 14:08:00,SystemResetWarning,0834.2,5.00,000.00,028.1,026.6,000.0,036.5,029.8,33.6,0001.1,0013.68,0007.18,0006.42
2023-08-24 14:09:00,SystemResetWarning,0834.2,5.00,000.00,028.2,026.8,000.0,036.5,029.9,34.0,0001.0,0014.04,0007.23,0006.46
2023-08-24 14:10:00,SystemResetWarning,0834.2,5.00,000.00,028.2,026.9,000.0,036.5,029.9,33.6,0000.8,0014.42,0007.34,0006.51
2023-08-24 14:11:00,SystemResetWarning,0834.2,4.99,000.00,028.2,027.0,000.0,036.5,030.0,33.3,0000.7,0014.46,0007.35,0006.52
2023-08-24 14:12:00,SystemResetWarning,0834.1,4.99,000.00,028.2,025.8,000.0,036.4,029.8,33.5,0000.6,0014.62,0007.34,0006.53
2023-08-24 14:13:00,SystemResetWarning,0834.1,5.01,000.00,028.1,024.5,000.0,036.3,029.4,33.0,0000.7,0014.57,0007.38,0006.53
2023-08-24 14:14:00,SystemResetWarning,0834.1,5.01,000.00,028.0,024.3,000.0,036.3,029.4,32.7,0000.9,0013.99,0007.38,0006.52
2023-08-24 14:15:00,SystemResetWarning,0834.1,5.00,000.00,028.0,024.6,000.0,036.3,029.4,33.0,0000.4,0013.99,0007.39,0006.55
2023-08-24 14:16:00,SystemResetWarning,0834.1,5.01,000.00,027.9,025.0,000.0,036.4,029.4,32.3,0000.4,0014.29,0007.42,0006.57
2023-08-24 14:17:00,SystemResetWarning,0834.1,5.00,000.00,027.9,025.4,000.0,036.4,029.5,32.5,0000.9,0014.50,0007.45,0006.60
2023-08-24 14:18:00,SystemResetWarning,0834.0,5.00,000.00,028.0,025.7,000.0,036.4,029.6,32.8,0001.2,0014.75,0007.50,0006.64
2023-08-24 14:19:00,SystemResetWarning,0834.1,5.00,000.00,028.0,026.1,000.0,036.4,029.7,32.7,0001.1,0015.15,0007.60,0006.68
2023-08-24 14:20:00,SystemResetWarning,0834.1,5.00,000.00,028.0,026.3,000.0,036.5,029.7,32.7,0001.0,0015.03,0007.62,0006.69
2023-08-24 14:21:00,SystemResetWarning,0834.1,5.00,000.00,028.1,026.5,000.0,036.5,029.8,32.3,0001.2,0014.81,0007.59,0006.71
2023-08-24 14:22:00,SystemResetWarning,0834.1,5.00,000.00,028.1,026.7,000.0,036.5,029.9,31.9,0001.6,0014.30,0007.61,0006.74
2023-08-24 14:23:00,SystemResetWarning,0834.1,5.00,000.00,028.2,026.9,000.0,036.5,029.9,30.5,0001.5,0014.58,0007.67,0006.78
2023-08-24 14:24:00,SystemResetWarning,0834.1,4.99,000.00,028.2,026.2,000.0,036.4,029.8,29.9,0001.6,0014.21,0007.70,0006.80
2023-08-24 14:25:00,SystemResetWarning,0834.1,5.00,000.00,028.1,024.8,000.0,036.3,029.5,30.1,0001.5,0013.78,0007.75,0006.83
2023-08-24 14:26:00,SystemResetWarning,0834.1,5.01,000.00,028.0,024.4,000.0,036.2,029.4,30.4,0001.8,0013.63,0007.81,0006.86
2023-08-24 14:27:00,SystemResetWarning,0834.0,5.00,000.00,027.9,024.6,000.0,036.3,029.4,30.7,0001.9,0013.67,0007.83,0006.86
2023-08-24 14:28:00,SystemResetWarning,0834.1,4.99,000.00,027.9,025.0,000.0,036.3,029.4,30.9,0001.9,0013.71,0007.89,0006.88
2023-08-24 14:29:00,SystemResetWarning,0834.1,5.00,000.00,027.9,025.3,000.0,036.3,029.5,30.5,0001.5,0013.49,0007.91,0006.89
2023-08-24 14:30:00,SystemResetWarning,0834.1,5.00,000.00,027.9,025.7,000.0,036.4,029.6,31.0,0001.5,0013.17,0007.86,0006.87
2023-08-24 14:31:00,SystemResetWarning,0834.1,5.00,000.00,028.0,026.0,000.0,036.4,029.6,31.1,0001.4,0013.34,0007.86,0006.88
2023-08-24 14:32:00,SystemResetWarning,0834.1,5.00,000.00,028.0,026.3,000.0,036.4,029.7,31.0,0001.4,0013.74,0007.86,0006.89
2023-08-24 14:33:00,SystemResetWarning,0834.1,4.99,000.00,028.1,026.5,000.0,036.4,029.8,31.2,0000.6,0014.27,0007.91,0006.88
2023-08-24 14:34:00,SystemResetWarning,0834.1,4.99,000.00,028.1,026.7,000.0,036.5,029.8,31.0,0000.6,0014.02,0007.91,0006.88
2023-08-24 14:35:00,SystemResetWarning,0834.1,5.00,000.00,028.1,026.8,000.0,036.5,029.9,31.0,0000.5,0013.72,0007.91,0006.90
2023-08-24 14:36:00,SystemResetWarning,0834.1,4.99,000.00,028.1,025.8,000.0,036.4,029.7,30.8,0000.2,0013.96,0007.90,0006.89
2023-08-24 14:37:00,SystemResetWarning,0834.0,5.01,000.00,028.0,024.6,000.0,036.3,029.4,30.7,-000.1,0014.72,0007.90,0006.89
2023-08-24 14:38:00,SystemResetWarning,0834.0,5.01,000.00,028.0,024.5,000.0,036.2,029.4,31.0,-000.2,0015.20,0007.90,0006.88
2023-08-24 14:39:00,SystemResetWarning,0834.0,5.00,000.00,027.9,024.8,000.0,036.2,029.4,31.3,-000.4,0015.47,0007.84,0006.87
2023-08-24 14:40:00,SystemResetWarning,0834.0,5.01,000.00,027.9,025.2,000.0,036.3,029.4,31.7,-000.5,0016.26,0007.79,0006.87
2023-08-24 14:41:00,SystemResetWarning,0834.0,5.00,000.00,027.9,025.6,000.0,036.3,029.5,31.0,-000.5,0016.72,0007.82,0006.87
2023-08-24 14:42:00,SystemResetWarning,0834.0,5.00,000.00,027.9,025.9,000.0,036.3,029.6,30.9,-000.3,0017.15,0007.83,0006.86
2023-08-24 14:43:00,SystemResetWarning,0834.0,5.00,000.00,028.0,026.2,000.0,036.4,029.7,30.9,-000.4,0017.33,0007.85,0006.86
2023-08-24 14:44:00,SystemResetWarning,0834.0,5.00,000.00,028.0,026.4,000.0,036.4,029.7,30.3,-000.2,0016.78,0007.81,0006.86
2023-08-24 14:45:00,SystemResetWarning,0834.0,5.00,000.00,028.1,026.7,000.0,036.4,029.8,30.7,0000.1,0016.44,0007.78,0006.88
2023-08-24 14:46:00,SystemResetWarning,0834.0,5.00,000.00,028.1,026.6,000.0,036.4,029.8,31.1,0000.5,0016.46,0007.77,0006.88
2023-08-24 14:47:00,SystemResetWarning,0834.0,4.99,000.00,028.0,025.3,000.0,036.3,029.5,32.2,0000.4,0016.87,0007.79,0006.91
2023-08-24 14:48:00,SystemResetWarning,0834.0,5.00,000.00,028.0,024.4,000.0,036.2,029.3,34.2,0000.8,0016.26,0007.80,0006.93
2023-08-24 14:49:00,SystemResetWarning,0834.0,5.02,000.00,027.9,024.6,000.0,036.2,029.3,34.7,0000.9,0015.75,0007.81,0006.95
2023-08-24 14:50:00,SystemResetWarning,0833.9,4.98,000.00,027.9,024.9,000.0,036.2,029.3,35.2,0001.2,0015.25,0007.84,0006.97
2023-08-24 14:51:00,SystemResetWarning,0834.0,5.03,000.00,028.0,025.3,000.0,036.3,029.5,35.6,0002.0,0014.50,0007.84,0006.97
2023-08-24 14:52:00,SystemResetWarning,0833.9,4.99,000.00,028.3,025.7,000.0,036.3,029.7,36.3,0001.9,0014.07,0007.83,0006.99
2023-08-24 14:53:00,SystemResetWarning,0834.0,5.00,000.00,028.7,026.0,000.0,036.4,029.9,35.4,0001.9,0014.00,0007.85,0007.00
2023-08-24 14:54:00,SystemResetWarning,0834.0,5.00,000.00,029.1,026.3,000.0,036.4,030.1,34.1,0001.8,0013.48,0007.79,0007.01
2023-08-24 14:55:00,SystemResetWarning,0834.0,4.99,000.00,029.4,026.6,000.0,036.5,030.2,33.6,0001.7,0013.74,0007.79,0007.03
2023-08-24 14:56:00,SystemResetWarning,0834.0,5.01,000.00,029.5,026.6,000.0,036.6,030.2,33.7,0002.0,0013.67,0007.77,0007.03
2023-08-24 14:57:00,SystemResetWarning,0834.0,5.00,000.00,029.6,025.4,000.0,036.6,030.0,33.5,0001.7,0013.69,0007.80,0007.05
2023-08-24 14:58:00,SystemResetWarning,0833.9,4.99,000.00,029.6,024.4,000.0,036.6,029.7,32.8,0002.0,0013.90,0007.82,0007.06
2023-08-24 14:59:00,SystemResetWarning,0834.0,5.01,000.00,029.6,024.5,000.0,036.7,029.6,33.1,0002.1,0014.16,0007.79,0007.06
